When you browse on this site, cookies collect data to enhance your experience and personalize the content and advertising you see.
Visit our Privacy Policy to learn more. By continuing to use the site, you agree to this use of cookies and data.
  • In Czech Republic
  • List of Countries
  • For 7 days
  • Water Temperature
  • Weather Map
  • Weather Widgets
  • user-avatar
    Login

    Hourly Weather Canillo

    Today, 24 February, Monday

    Time Temperature Precipitation Wind Pressure Humidity
    00:00 +5°C° 0 mm 1 mps 625 mmHg 28%
    01:00 +5°C° 0 mm 1 mps 625 mmHg 27%
    02:00 +5°C° 0 mm 1 mps 624 mmHg 26%
    03:00 +5°C° 0 mm 1 mps 624 mmHg 26%
    04:00 +5°C° 0 mm 1 mps 623 mmHg 27%
    05:00 +5°C° 0 mm 1 mps 623 mmHg 28%
    06:00 +4°C° 0 mm 1 mps 623 mmHg 29%
    07:00 +6°C° 0 mm 1 mps 624 mmHg 30%
    08:00 +8°C° 0 mm 0 mps 625 mmHg 31%
    09:00 +10°C° 0 mm 0 mps 625 mmHg 32%
    10:00 +11°C° 0 mm 0 mps 625 mmHg 30%
    11:00 +14°C° 0 mm 1 mps 626 mmHg 28%
    12:00 +15°C° 0 mm 1 mps 626 mmHg 25%
    13:00 +15°C° 0 mm 1 mps 625 mmHg 28%
    14:00 +15°C° 0 mm 1 mps 624 mmHg 30%
    15:00 +14°C° 0 mm 1 mps 624 mmHg 32%
    16:00 +11°C° 0 mm 1 mps 622 mmHg 40%
    17:00 +9°C° 0 mm 1 mps 621 mmHg 48%
    18:00 +6°C° 0 mm 1 mps 620 mmHg 56%
    19:00 +6°C° 0 mm 1 mps 620 mmHg 49%
    20:00 +5°C° 0 mm 1 mps 619 mmHg 42%
    21:00 +4°C° 0 mm 2 mps 619 mmHg 35%
    22:00 +3°C° 0 mm 2 mps 619 mmHg 35%
    23:00 +3°C° 0 mm 2 mps 619 mmHg 35%

    Tomorrow, 25 February, Tuesday

    Time Temperature Precipitation Wind Pressure Humidity
    00:00 +2°C° 0 mm 2 mps 618 mmHg 35%
    01:00 +2°C° 0 mm 2 mps 618 mmHg 35%
    02:00 +3°C° 0 mm 1 mps 617 mmHg 34%
    03:00 +3°C° 0 mm 1 mps 617 mmHg 34%
    04:00 +3°C° 0 mm 1 mps 617 mmHg 34%
    05:00 +3°C° 0 mm 1 mps 616 mmHg 34%
    06:00 +2°C° 0 mm 1 mps 616 mmHg 35%
    07:00 +4°C° 0 mm 1 mps 617 mmHg 36%
    08:00 +5°C° 0 mm 1 mps 617 mmHg 38%
    09:00 +6°C° 0 mm 1 mps 618 mmHg 40%
    10:00 +6°C° 0 mm 1 mps 617 mmHg 41%
    11:00 +7°C° 0 mm 1 mps 617 mmHg 43%
    12:00 +6°C° 0 mm 2 mps 617 mmHg 44%
    13:00 +6°C° 0 mm 2 mps 617 mmHg 50%
    14:00 +6°C° 0 mm 2 mps 616 mmHg 55%
    15:00 +5°C° 0 mm 2 mps 616 mmHg 61%
    16:00 +4°C° 0.2 mm 2 mps 615 mmHg 71%
    17:00 +3°C° 0.2 mm 2 mps 615 mmHg 80%
    18:00 +1°C° 0.2 mm 2 mps 615 mmHg 90%
    19:00 +1°C° 0.1 mm 2 mps 615 mmHg 90%
    20:00 -1°C° 0.1 mm 2 mps 615 mmHg 91%
    21:00 -1°C° 0.1 mm 2 mps 615 mmHg 91%
    22:00 -2°C° 0 mm 2 mps 615 mmHg 91%
    23:00 -2°C° 0 mm 2 mps 614 mmHg 90%

    Day after tomorrow, 26 February, Wednesday

    Time Temperature Precipitation Wind Pressure Humidity
    00:00 -3°C° 0 mm 2 mps 614 mmHg 89%
    01:00 -3°C° 0 mm 2 mps 614 mmHg 88%
    02:00 -3°C° 0 mm 2 mps 613 mmHg 86%
    03:00 -3°C° 0 mm 2 mps 613 mmHg 84%
    04:00 -3°C° 0.1 mm 2 mps 613 mmHg 84%
    05:00 -4°C° 0.1 mm 2 mps 613 mmHg 84%
    06:00 -5°C° 0.1 mm 3 mps 612 mmHg 84%
    07:00 -4°C° 0.3 mm 3 mps 613 mmHg 77%
    08:00 -2°C° 0.3 mm 3 mps 614 mmHg 71%
    09:00 -1°C° 0.3 mm 3 mps 614 mmHg 65%
    10:00 -1°C° 0.4 mm 3 mps 615 mmHg 62%
    11:00 -1°C° 0.4 mm 4 mps 615 mmHg 59%
    12:00 -1°C° 0.4 mm 4 mps 615 mmHg 56%
    13:00 -1°C° 0.2 mm 4 mps 615 mmHg 57%
    14:00 -2°C° 0.2 mm 4 mps 615 mmHg 58%
    15:00 -2°C° 0.2 mm 4 mps 615 mmHg 59%
    16:00 -2°C° 0.4 mm 3 mps 614 mmHg 66%
    17:00 -4°C° 0.4 mm 3 mps 614 mmHg 72%
    18:00 -6°C° 0.4 mm 3 mps 614 mmHg 79%
    19:00 -6°C° 0.2 mm 3 mps 615 mmHg 81%
    20:00 -5°C° 0.2 mm 2 mps 615 mmHg 82%
    21:00 -6°C° 0.2 mm 2 mps 615 mmHg 83%
    22:00 -6°C° 0 mm 2 mps 615 mmHg 83%
    23:00 -6°C° 0 mm 2 mps 615 mmHg 82%

    27 February, Thursday

    Time Temperature Precipitation Wind Pressure Humidity
    00:00 -6°C° 0 mm 2 mps 615 mmHg 82%
    01:00 -4°C° 0 mm 1 mps 615 mmHg 77%
    02:00 -6°C° 0 mm 1 mps 615 mmHg 73%
    03:00 -6°C° 0 mm 1 mps 615 mmHg 68%
    04:00 -4°C° 0 mm 1 mps 615 mmHg 65%
    05:00 -4°C° 0 mm 1 mps 615 mmHg 62%
    06:00 -4°C° 0 mm 1 mps 615 mmHg 59%
    07:00 -2°C° 0 mm 1 mps 616 mmHg 54%
    08:00 0°C° 0 mm 1 mps 617 mmHg 50%
    09:00 +2°C° 0 mm 1 mps 618 mmHg 46%
    10:00 +3°C° 0 mm 1 mps 618 mmHg 46%
    11:00 +5°C° 0 mm 1 mps 619 mmHg 46%
    12:00 +7°C° 0 mm 1 mps 619 mmHg 46%
    13:00 +7°C° 0 mm 1 mps 619 mmHg 51%
    14:00 +7°C° 0 mm 1 mps 618 mmHg 55%
    15:00 +6°C° 0 mm 2 mps 618 mmHg 59%
    16:00 +5°C° 0 mm 1 mps 617 mmHg 67%
    17:00 +3°C° 0 mm 1 mps 616 mmHg 75%
    18:00 +1°C° 0 mm 1 mps 615 mmHg 83%
    19:00 0°C° 0 mm 1 mps 616 mmHg 78%
    20:00 -2°C° 0 mm 2 mps 616 mmHg 74%
    21:00 -2°C° 0 mm 2 mps 616 mmHg 69%
    22:00 -2°C° 0 mm 2 mps 616 mmHg 62%
    23:00 -2°C° 0 mm 2 mps 616 mmHg 54%

    28 February, Friday

    Time Temperature Precipitation Wind Pressure Humidity
    00:00 -2°C° 0 mm 2 mps 615 mmHg 47%
    01:00 -2°C° 0 mm 2 mps 615 mmHg 44%
    02:00 -2°C° 0 mm 2 mps 615 mmHg 40%
    03:00 -2°C° 0 mm 2 mps 615 mmHg 37%
    04:00 0°C° 0 mm 1 mps 615 mmHg 37%
    05:00 +1°C° 0 mm 1 mps 615 mmHg 36%
    06:00 +1°C° 0 mm 1 mps 615 mmHg 35%
    07:00 +3°C° 0 mm 1 mps 616 mmHg 36%
    08:00 +5°C° 0 mm 1 mps 617 mmHg 36%
    09:00 +6°C° 0 mm 1 mps 617 mmHg 37%
    10:00 +7°C° 0 mm 1 mps 617 mmHg 37%
    11:00 +7°C° 0 mm 2 mps 617 mmHg 37%
    12:00 +8°C° 0 mm 2 mps 617 mmHg 38%
    13:00 +8°C° 0 mm 2 mps 617 mmHg 41%
    14:00 +7°C° 0 mm 2 mps 616 mmHg 45%
    15:00 +7°C° 0 mm 2 mps 615 mmHg 49%
    16:00 +5°C° 0 mm 2 mps 614 mmHg 54%
    17:00 +4°C° 0 mm 2 mps 613 mmHg 58%
    18:00 +2°C° 0 mm 2 mps 612 mmHg 63%
    19:00 +1°C° 0 mm 2 mps 612 mmHg 62%
    20:00 +1°C° 0 mm 2 mps 612 mmHg 62%
    21:00 +2°C° 0 mm 1 mps 612 mmHg 61%
    22:00 +2°C° 0 mm 1 mps 612 mmHg 60%
    23:00 +1°C° 0 mm 1 mps 612 mmHg 59%

    29 February, Saturday

    Time Temperature Precipitation Wind Pressure Humidity
    00:00 +1°C° 0 mm 1 mps 611 mmHg 57%
    01:00 +1°C° 0 mm 1 mps 611 mmHg 56%
    02:00 +1°C° 0 mm 1 mps 611 mmHg 55%
    03:00 +1°C° 0 mm 1 mps 610 mmHg 53%
    04:00 0°C° 0 mm 1 mps 610 mmHg 58%
    05:00 0°C° 0 mm 1 mps 610 mmHg 63%
    06:00 0°C° 0 mm 1 mps 610 mmHg 68%
    07:00 +1°C° 0 mm 1 mps 611 mmHg 66%
    08:00 +2°C° 0 mm 1 mps 612 mmHg 65%
    09:00 +4°C° 0 mm 1 mps 612 mmHg 63%
    10:00 +4°C° 0.1 mm 1 mps 612 mmHg 65%
    11:00 +5°C° 0.1 mm 1 mps 612 mmHg 66%
    12:00 +5°C° 0.1 mm 1 mps 613 mmHg 68%
    13:00 +5°C° 0 mm 1 mps 612 mmHg 69%
    14:00 +4°C° 0 mm 2 mps 612 mmHg 70%
    15:00 +4°C° 0 mm 2 mps 611 mmHg 71%
    16:00 +3°C° 0.2 mm 2 mps 611 mmHg 77%
    17:00 +2°C° 0.2 mm 2 mps 610 mmHg 83%
    18:00 +1°C° 0.2 mm 1 mps 610 mmHg 89%
    19:00 +1°C° 0.7 mm 1 mps 610 mmHg 91%
    20:00 0°C° 0.7 mm 1 mps 610 mmHg 93%
    21:00 -2°C° 0.7 mm 2 mps 610 mmHg 95%
    22:00 -3°C° 0.4 mm 2 mps 610 mmHg 94%
    23:00 -3°C° 0.4 mm 2 mps 610 mmHg 93%
    Show more